Weather History for Peachtree City, GA

Change the Weather History Date:

Wednesday, December 5, 2012

  Actual Average Record
Temperature  
Mean Temperature 60 °F 47 °F  
Max Temperature 71 °F 58 °F 75 °F (1998)
Min Temperature 48 °F 35 °F 21 °F (2000)
Degree Days  
Heating Degree Days 6 18  
Month to date heating degree days 88  
Since 1 July heating degree days 630  
Cooling Degree Days 0 0  
Month to date cooling degree days 0  
Year to date cooling degree days 1653  
Growing Degree Days 10 (Base 50)    
Moisture  
Dew Point 52 °F    
Average Humidity 84    
Maximum Humidity 97    
Minimum Humidity 53    
Precipitation  
Precipitation 0.00 in 0.16 in 0.57 in (1999)
Month to date precipitation 0.85  
Snow  
Snow 0.00 in - - ()
Month to date snowfall  
Since 1 July snowfall  
Snow Depth -    
Sea Level Pressure  
Sea Level Pressure 30.18 in    
Wind  
Wind Speed 1 mph (NW)    
Max Wind Speed 7 mph    
Max Gust Speed -    
Visibility 9 miles    
Events      
T = Trace of Precipitation, MM = Missing Value Source: NWS Daily Summary

Daily Weather History Graph

Daily Weather History Graph

Search for Another Location

Airport:

Trip Planner

Search our weather history database for the weather conditions in past years. The results will help you decide how hot, cold, wet, or windy it might be!

Date:

Astronomy

Dec. 05, 2012 Rise Set
Actual Time 7:27 AM EST 5:30 PM EST
Civil Twilight 7:00 AM EST 5:57 PM EST
Nautical Twilight 6:29 AM EST 6:28 PM EST
Astronomical Twilight 5:59 AM EST 6:58 PM EST
Moon No Moon Rise 12:04 PM EST (12/5)
Length of Visible Light 10h 57m
Length of Day
10h 02m
Waning Gibbous, 60% of the Moon is Illuminated
Dec 5
Waning Gibbous
Dec 6
Last Quarter
Dec 13
New
Dec 20
First Quarter
Dec 28
Full

Hourly Weather History & Observations

Time (EST) Temp. Dew Point Humidity Pressure Visibility Wind Dir Wind Speed Gust Speed Precip Events Conditions
12:53 AM 48.0 °F 46.0 °F 93% 30.22 in 9.0 mi Calm Calm - N/A   Clear
1:53 AM 50.0 °F 48.0 °F 93% 30.21 in 10.0 mi Calm Calm - N/A   Overcast
2:53 AM 50.0 °F 48.0 °F 93% 30.21 in 10.0 mi Calm Calm - N/A   Overcast
3:53 AM 48.9 °F 46.9 °F 93% 30.19 in 8.0 mi Calm Calm - N/A   Clear
4:53 AM 48.0 °F 46.0 °F 93% 30.19 in 10.0 mi Calm Calm - N/A   Mostly Cloudy
5:53 AM 50.0 °F 48.0 °F 93% 30.20 in 10.0 mi Calm Calm - N/A   Overcast
6:53 AM 51.1 °F 48.9 °F 92% 30.22 in 10.0 mi Calm Calm - N/A   Overcast
7:53 AM 52.0 °F 50.0 °F 93% 30.23 in 9.0 mi Calm Calm - N/A   Overcast
9:53 AM 57.9 °F 53.1 °F 84% 30.25 in 10.0 mi Calm Calm - N/A   Overcast
10:53 AM 64.9 °F 55.0 °F 70% 30.24 in 10.0 mi Calm Calm - N/A   Overcast
11:53 AM 68.0 °F 57.0 °F 68% 30.22 in 10.0 mi NW 5.8 mph - N/A   Clear
12:53 PM 71.1 °F 53.1 °F 53% 30.18 in 10.0 mi NW 4.6 mph - N/A   Mostly Cloudy
1:53 PM 69.1 °F 54.0 °F 58% 30.16 in 10.0 mi NW 3.5 mph - N/A   Overcast
2:53 PM 68.0 °F 54.0 °F 61% 30.14 in 10.0 mi Calm Calm - N/A   Overcast
3:53 PM 64.9 °F 57.0 °F 75% 30.14 in 10.0 mi North 6.9 mph - 0.00 in   Overcast
4:53 PM 64.0 °F 57.9 °F 80% 30.14 in 9.0 mi Calm Calm - 0.00 in   Overcast
5:53 PM 62.1 °F 57.0 °F 84% 30.14 in 10.0 mi Calm Calm - N/A   Overcast
6:53 PM 57.9 °F 55.9 °F 93% 30.15 in 10.0 mi Calm Calm - N/A   Partly Cloudy
7:53 PM 55.9 °F 55.0 °F 97% 30.16 in 7.0 mi Calm Calm - N/A   Scattered Clouds
8:53 PM 55.0 °F 53.1 °F 93% 30.16 in 9.0 mi Calm Calm - N/A   Mostly Cloudy
9:53 PM 55.0 °F 53.1 °F 93% 30.15 in 8.0 mi Calm Calm - N/A   Mostly Cloudy
10:53 PM 53.1 °F 51.1 °F 93% 30.15 in 7.0 mi Calm Calm - N/A   Clear
11:53 PM 52.0 °F 50.0 °F 93% 30.14 in 7.0 mi Calm Calm - N/A   Clear